TimeCDT,TemperatureF,Dew PointF,Humidity,Sea Level PressureIn,VisibilityMPH,Wind Direction,Wind SpeedMPH,Gust SpeedMPH,PrecipitationIn,Events,Conditions,WindDirDegrees,DateUTC
12:41 AM,71.6,69.8,94,29.98,7.0,Calm,Calm,-,N/A,,Scattered Clouds,0,2013-07-18 05:41:00
1:40 AM,71.6,69.8,94,29.98,7.0,Calm,Calm,-,N/A,,Scattered Clouds,0,2013-07-18 06:40:00
2:40 AM,71.6,69.8,94,29.97,7.0,Calm,Calm,-,N/A,,Scattered Clouds,0,2013-07-18 07:40:00
3:40 AM,69.8,68.0,94,29.99,7.0,Calm,Calm,-,N/A,,Scattered Clouds,0,2013-07-18 08:40:00
4:41 AM,69.8,68.0,94,29.97,7.0,Calm,Calm,-,N/A,,Scattered Clouds,0,2013-07-18 09:41:00
5:40 AM,69.8,68.0,94,29.98,7.0,Calm,Calm,-,N/A,,Scattered Clouds,0,2013-07-18 10:40:00
6:40 AM,69.8,68.0,94,29.97,7.0,Calm,Calm,-,N/A,,Mostly Cloudy,0,2013-07-18 11:40:00
7:43 AM,73.4,71.6,94,30.02,8.0,Calm,Calm,-,N/A,,Mostly Cloudy,0,2013-07-18 12:43:00
8:41 AM,77.0,75.2,94,30.03,8.0,ESE,4.6,-,N/A,,Mostly Cloudy,110,2013-07-18 13:41:00
9:47 AM,80.6,75.2,84,30.06,8.0,East,3.5,-,N/A,,Mostly Cloudy,90,2013-07-18 14:47:00
10:40 AM,82.4,75.2,79,30.03,8.0,ESE,6.9,-,N/A,,Mostly Cloudy,120,2013-07-18 15:40:00
11:44 AM,80.6,69.8,70,30.05,8.0,SE,9.2,-,N/A,,Mostly Cloudy,130,2013-07-18 16:44:00
12:47 PM,82.4,73.4,74,30.03,8.0,ESE,15.0,-,N/A,,Mostly Cloudy,120,2013-07-18 17:47:00
1:41 PM,80.6,69.8,70,30.02,8.0,SE,18.4,-,N/A,,Mostly Cloudy,130,2013-07-18 18:41:00
2:42 PM,82.4,73.4,74,29.98,8.0,SE,4.6,-,N/A,,Mostly Cloudy,140,2013-07-18 19:42:00
3:47 PM,82.4,75.2,79,30.00,8.0,ESE,13.8,-,N/A,,Mostly Cloudy,120,2013-07-18 20:47:00
5:05 PM,82.4,75.2,79,29.98,8.0,SE,9.2,-,N/A,,Mostly Cloudy,140,2013-07-18 22:05:00
5:49 PM,80.6,75.2,84,29.97,7.0,East,5.8,-,N/A,,Mostly Cloudy,90,2013-07-18 22:49:00
6:43 PM,75.2,73.4,94,29.96,7.0,Calm,Calm,-,N/A,,Overcast,0,2013-07-18 23:43:00
7:46 PM,75.2,73.4,94,29.99,7.0,ESE,4.6,-,N/A,,Mostly Cloudy,110,2013-07-19 00:46:00
8:43 PM,73.4,73.4,100,30.00,7.0,Calm,Calm,-,N/A,,Mostly Cloudy,0,2013-07-19 01:43:00
9:47 PM,73.4,73.4,100,30.04,7.0,Calm,Calm,-,N/A,,Overcast,0,2013-07-19 02:47:00
10:50 PM,73.4,73.4,100,30.03,7.0,Calm,Calm,-,N/A,,Overcast,0,2013-07-19 03:50:00
11:44 PM,73.4,73.4,100,30.03,7.0,Calm,Calm,-,N/A,,Mostly Cloudy,0,2013-07-19 04:44:00